This is the latest recevied weather packets stored in our database for station/object KI8L. If no packets are shown the sender has not sent any weather packets the latest 10 day(s).
| Time | Temp. | Humidity | Pressure | Rain* | Wind** | Luminosity | Snow |
|---|---|---|---|---|---|---|---|
| 1778175975 | 13.33° C | 53% | 1015.3 hPa | 0 mm | - | 799 W/m² | - |
| 1778175672 | 12.22° C | 55% | 1015.2 hPa | 0 mm | - | 823 W/m² | - |
| 1778175369 | 13.89° C | 58% | 1015.3 hPa | 0 mm | - | 220 W/m² | - |
| 1778175066 | 13.89° C | 53% | 1015.3 hPa | 0 mm | - | 824 W/m² | - |
| 1778174762 | 13.33° C | 51% | 1015.3 hPa | 0 mm | - | 224 W/m² | - |
| 1778174460 | 12.78° C | 54% | 1015.3 hPa | 0 mm | - | 236 W/m² | - |
| 1778174154 | 13.33° C | 57% | 1015 hPa | 0 mm | - | 822 W/m² | - |
| 1778173852 | 13.33° C | 59% | 1015.4 hPa | 0 mm | - | 780 W/m² | - |
| 1778173549 | 12.22° C | 56% | 1015.4 hPa | 0 mm | - | 813 W/m² | - |
| 1778173246 | 13.33° C | 57% | 1015.2 hPa | 0 mm | - | 773 W/m² | - |
| 1778172941 | 13.33° C | 55% | 1015.3 hPa | 0 mm | - | 806 W/m² | - |
| 1778172638 | 12.78° C | 53% | 1015.3 hPa | 0 mm | - | 889 W/m² | - |
| 1778172334 | 13.33° C | 57% | 1015.3 hPa | 0 mm | - | 751 W/m² | - |
| 1778172032 | 12.78° C | 57% | 1015.4 hPa | 0 mm | - | 727 W/m² | - |
| 1778171728 | 13.33° C | 54% | 1015.4 hPa | 0 mm | - | 694 W/m² | - |
| 1778171427 | 12.22° C | 59% | 1015.3 hPa | 0 mm | - | 707 W/m² | - |
| 1778171127 | 12.78° C | 53% | 1015.4 hPa | 0 mm | - | 713 W/m² | - |
| 1778170824 | 11.67° C | 59% | 1015.4 hPa | 0 mm | - | 714 W/m² | - |
| 1778170520 | 11.67° C | 58% | 1015.5 hPa | 0 mm | - | 736 W/m² | - |
| 1778170217 | 11.67° C | 55% | 1015.3 hPa | 0 mm | - | 184 W/m² | - |
| 1778169913 | 12.78° C | 53% | 1015.3 hPa | 0 mm | - | 191 W/m² | - |
| 1778169610 | 12.78° C | 60% | 1015.6 hPa | 0 mm | - | 784 W/m² | - |
| 1778169305 | 12.78° C | 55% | 1015.5 hPa | 0 mm | - | 698 W/m² | - |
| 1778169003 | 12.22° C | 54% | 1015.4 hPa | 0 mm | - | 669 W/m² | - |
| 1778168699 | 11.67° C | 56% | 1015.4 hPa | 0 mm | - | 699 W/m² | - |
* Rain latest hour (hover to see other rain measurements)
** Current wind speed in m/s (hover to see current wind gust speed)